| time (UTC) | temp F | wind direction | speed knots | gust knots | rain 1hr in | rain 24hr in | rain mn in | humidity % | barometer mb |
| 20260906164411 | 87 | 60 | 4.3 | 9.6 | 0.00 | 0.00 | 0.00 | 72 | 1018.6 |
| 20260906162435 | 87 | 66 | 5.2 | 9.6 | 0.00 | 0.00 | 0.00 | 72 | 1018.8 |
| 20260906161425 | 86 | 128 | 7.8 | 10.4 | 0.00 | 0.00 | 0.00 | 73 | 1018.8 |
| 20260906160401 | 85 | 93 | 6.1 | 11.3 | 0.00 | 0.00 | 0.00 | 74 | 1018.8 |
| 20260906154420 | 84 | 80 | 3.5 | 10.4 | 0.00 | 0.00 | 0.00 | 74 | 1018.6 |
| 20260906153419 | 84 | 80 | 6.1 | 11.3 | 0.00 | 0.00 | 0.00 | 74 | 1018.6 |
| 20260906152408 | 83 | 109 | 4.3 | 9.6 | 0.00 | 0.00 | 0.00 | 76 | 1018.5 |
| 20260906151408 | 83 | 89 | 4.3 | 10.4 | 0.00 | 0.00 | 0.00 | 78 | 1018.4 |
| 20260906145432 | 82 | 107 | 6.1 | 9.6 | 0.00 | 0.00 | 0.00 | 77 | 1018.4 |
| 20260906144441 | 82 | 113 | 7.0 | 10.4 | 0.00 | 0.00 | 0.00 | 78 | 1018.5 |
| 20260906143413 | 81 | 125 | 6.1 | 10.4 | 0.00 | 0.00 | 0.00 | 79 | 1018.4 |
| 20260906142402 | 81 | 104 | 3.5 | 9.6 | 0.00 | 0.00 | 0.00 | 80 | 1018.5 |
| 20260906141442 | 80 | 85 | 3.5 | 7.8 | 0.00 | 0.00 | 0.00 | 80 | 1018.5 |
| 20260906140427 | 79 | 112 | 4.3 | 8.7 | 0.00 | 0.00 | 0.00 | 81 | 1018.6 |
| 20260906135431 | 79 | 113 | 6.1 | 10.4 | 0.00 | 0.00 | 0.00 | 81 | 1018.6 |
| 20260906134436 | 78 | 106 | 4.3 | 8.7 | 0.00 | 0.00 | 0.00 | 84 | 1018.5 |
| 20260906133415 | 77 | 93 | 5.2 | 9.6 | 0.00 | 0.00 | 0.00 | 84 | 1018.2 |
| 20260906131405 | 76 | 102 | 4.3 | 9.6 | 0.00 | 0.00 | 0.00 | 86 | 1017.9 |
| 20260906130414 | 76 | 102 | 5.2 | 8.7 | 0.00 | 0.00 | 0.00 | 87 | 1017.7 |
| 20260906125407 | 75 | 96 | 6.1 | 9.6 | 0.00 | 0.00 | 0.00 | 89 | 1017.8 |
| 20260906124413 | 75 | 97 | 4.3 | 7.8 | 0.00 | 0.00 | 0.00 | 90 | 1017.7 |
| 20260906123426 | 75 | 88 | 2.6 | 8.7 | 0.00 | 0.00 | 0.00 | 91 | 1017.7 |
| 20260906122419 | 75 | 92 | 5.2 | 7.8 | 0.00 | 0.00 | 0.00 | 91 | 1017.5 |
| 20260906121414 | 75 | 98 | 4.3 | 7.0 | 0.00 | 0.00 | 0.00 | 91 | 1017.5 |
| 20260906120432 | 75 | 111 | 3.5 | 7.0 | 0.00 | 0.00 | 0.00 | 91 | 1017.5 |
| 20260906115406 | 75 | 100 | 3.5 | 7.0 | 0.00 | 0.00 | 0.00 | 92 | 1017.4 |
| 20260906114401 | 75 | 93 | 2.6 | 7.0 | 0.00 | 0.00 | 0.00 | 92 | 1017.3 |
| 20260906113421 | 75 | 99 | 3.5 | 7.8 | 0.00 | 0.00 | 0.00 | 92 | 1017.3 |
| 20260906112424 | 75 | 89 | 3.5 | 7.0 | 0.00 | 0.00 | 0.00 | 92 | 1017.3 |
| 20260906111403 | 75 | 106 | 4.3 | 8.7 | 0.00 | 0.00 | 0.00 | 92 | 1017.2 |
| 20260906110412 | 76 | 107 | 3.5 | 7.0 | 0.00 | 0.00 | 0.00 | 92 | 1017.2 |
| 20260906104439 | 76 | 105 | 3.5 | 6.1 | 0.00 | 0.00 | 0.00 | 92 | 1017.0 |
| 20260906103419 | 76 | 85 | 2.6 | 6.1 | 0.00 | 0.00 | 0.00 | 92 | 1017.0 |
| 20260906102413 | 76 | 90 | 2.6 | 7.0 | 0.00 | 0.00 | 0.00 | 92 | 1017.0 |
| 20260906101445 | 76 | 87 | 1.7 | 6.1 | 0.00 | 0.00 | 0.00 | 92 | 1016.9 |
| 20260906100436 | 76 | 67 | 4.3 | 7.8 | 0.00 | 0.00 | 0.00 | 92 | 1016.8 |
| 20260906095440 | 76 | 72 | 2.6 | 6.1 | 0.00 | 0.00 | 0.00 | 92 | 1016.7 |
| 20260906094415 | 76 | 85 | 3.5 | 7.0 | 0.00 | 0.00 | 0.00 | 92 | 1016.6 |
| 20260906093442 | 76 | 84 | 3.5 | 6.1 | 0.00 | 0.00 | 0.00 | 91 | 1016.6 |
| 20260906092410 | 77 | 90 | 2.6 | 7.8 | 0.00 | 0.00 | 0.00 | 91 | 1016.3 |
| 20260906091400 | 77 | 83 | 2.6 | 7.0 | 0.00 | 0.00 | 0.00 | 91 | 1016.3 |
| 20260906090409 | 77 | 88 | 2.6 | 7.8 | 0.00 | 0.00 | 0.00 | 90 | 1016.2 |
| 20260906085444 | 77 | 71 | 3.5 | 7.0 | 0.00 | 0.00 | 0.00 | 90 | 1016.3 |
| 20260906083434 | 77 | 68 | 3.5 | 7.8 | 0.00 | 0.00 | 0.00 | 89 | 1016.2 |
| 20260906082414 | 77 | 67 | 5.2 | 8.7 | 0.00 | 0.00 | 0.00 | 89 | 1016.1 |
| 20260906081414 | 77 | 72 | 3.5 | 7.0 | 0.00 | 0.00 | 0.00 | 89 | 1016.0 |
| 20260906075408 | 77 | 75 | 4.3 | 7.0 | 0.00 | 0.00 | 0.00 | 89 | 1015.9 |
| 20260906074442 | 77 | 77 | 3.5 | 6.1 | 0.00 | 0.00 | 0.00 | 88 | 1015.9 |
| 20260906073434 | 77 | 69 | 2.6 | 4.3 | 0.00 | 0.00 | 0.00 | 88 | 1016.1 |
| 20260906072438 | 77 | 69 | 2.6 | 4.3 | 0.00 | 0.00 | 0.00 | 88 | 1016.1 |
| 20260906071433 | 77 | 83 | 2.6 | 3.5 | 0.00 | 0.00 | 0.00 | 88 | 1016.2 |
| 20260906070414 | 77 | 85 | 0.0 | 2.6 | 0.00 | 0.00 | 0.00 | 88 | 1016.1 |
| 20260906065422 | 76 | 85 | 0.9 | 3.5 | 0.00 | 0.00 | 0.00 | 88 | 1016.0 |
| 20260906064436 | 76 | 81 | 2.6 | 4.3 | 0.00 | 0.00 | 0.00 | 87 | 1016.2 |
| 20260906063429 | 77 | 95 | 0.0 | 0.0 | 0.00 | 0.00 | 0.00 | 87 | 1016.2 |
| 20260906062417 | 77 | 95 | 0.0 | 0.0 | 0.00 | 0.00 | 0.00 | 85 | 1016.2 |
| 20260906061417 | 78 | 95 | 0.0 | 0.0 | 0.00 | 0.00 | 0.00 | 85 | 1016.2 |
| 20260906060441 | 78 | 95 | 0.0 | 0.0 | 0.00 | 0.00 | 0.00 | 84 | 1016.3 |
| 20260906054434 | 79 | 95 | 0.0 | 0.0 | 0.00 | 0.00 | 0.00 | 82 | 1016.3 |
| 20260906053412 | 79 | 95 | 0.0 | 0.0 | 0.00 | 0.00 | 0.00 | 81 | 1016.3 |
| 20260906050427 | 81 | 95 | 0.9 | 2.6 | 0.00 | 0.00 | 0.00 | 79 | 1016.2 |
| 20260906045418 | 81 | 95 | 1.7 | 2.6 | 0.00 | 0.00 | 0.00 | 79 | 1016.0 |
| 20260906044412 | 81 | 96 | 1.7 | 3.5 | 0.00 | 0.00 | 0.00 | 78 | 1016.1 |
| 20260906043427 | 82 | 96 | 0.9 | 2.6 | 0.00 | 0.00 | 0.00 | 77 | 1016.1 |
| 20260906042437 | 82 | 96 | 1.7 | 4.3 | 0.00 | 0.00 | 0.00 | 76 | 1016.0 |
| 20260906040422 | 82 | 96 | 1.7 | 3.5 | 0.00 | 0.00 | 0.00 | 75 | 1015.9 |
| 20260906035424 | 83 | 96 | 1.7 | 5.2 | 0.00 | 0.00 | 0.00 | 74 | 1015.9 |
| 20260906034421 | 83 | 98 | 2.6 | 3.5 | 0.00 | 0.00 | 0.00 | 74 | 1015.7 |
| 20260906033404 | 83 | 98 | 1.7 | 5.2 | 0.00 | 0.00 | 0.00 | 73 | 1015.6 |
| 20260906032417 | 83 | 109 | 3.5 | 6.1 | 0.00 | 0.00 | 0.00 | 72 | 1015.5 |
| 20260906031420 | 84 | 110 | 2.6 | 6.1 | 0.00 | 0.00 | 0.00 | 71 | 1015.4 |
| 20260906030418 | 84 | 105 | 3.5 | 6.1 | 0.00 | 0.00 | 0.00 | 71 | 1015.5 |
| 20260906025400 | 84 | 82 | 1.7 | 4.3 | 0.00 | 0.00 | 0.00 | 70 | 1015.5 |
| 20260906024408 | 84 | 84 | 1.7 | 6.1 | 0.00 | 0.00 | 0.00 | 69 | 1015.5 |
| 20260906023401 | 84 | 73 | 2.6 | 5.2 | 0.00 | 0.00 | 0.00 | 69 | 1015.3 |
| 20260906022408 | 84 | 76 | 2.6 | 4.3 | 0.00 | 0.00 | 0.00 | 69 | 1015.2 |
| 20260906020421 | 84 | 68 | 2.6 | 4.3 | 0.00 | 0.00 | 0.00 | 69 | 1015.0 |
| 20260906015433 | 84 | 62 | 2.6 | 4.3 | 0.00 | 0.00 | 0.00 | 69 | 1014.8 |
| 20260906014441 | 85 | 62 | 1.7 | 3.5 | 0.00 | 0.00 | 0.00 | 68 | 1014.6 |
| 20260906012407 | 85 | 60 | 2.6 | 4.3 | 0.00 | 0.00 | 0.00 | 67 | 1014.4 |
| 20260906011434 | 87 | 60 | 1.7 | 3.5 | 0.00 | 0.00 | 0.00 | 68 | 1014.3 |
| 20260906010405 | 88 | 60 | 0.0 | 0.0 | 0.00 | 0.00 | 0.00 | 63 | 1014.2 |
| 20260906005426 | 88 | 60 | 0.9 | 3.5 | 0.00 | 0.00 | 0.00 | 61 | 1014.2 |
| 20260906004432 | 89 | 60 | 1.7 | 4.3 | 0.00 | 0.00 | 0.00 | 60 | 1014.1 |
| 20260906003429 | 90 | 60 | 1.7 | 4.3 | 0.00 | 0.00 | 0.00 | 59 | 1014.1 |
| 20260906002446 | 91 | 60 | 3.5 | 6.1 | 0.00 | 0.00 | 0.00 | 58 | 1014.1 |
| 20260906000411 | 92 | 62 | 3.5 | 5.2 | 0.00 | 0.00 | 0.00 | 57 | 1014.2 |
| 20260905234421 | 93 | 72 | 3.5 | 5.2 | 0.00 | 0.00 | 0.00 | 54 | 1014.0 |
| 20260905233415 | 93 | 79 | 2.6 | 4.3 | 0.00 | 0.00 | 0.00 | 54 | 1014.0 |
| 20260905232424 | 94 | 73 | 1.7 | 4.3 | 0.00 | 0.00 | 0.00 | 52 | 1013.9 |
| 20260905231444 | 95 | 62 | 3.5 | 7.0 | 0.00 | 0.00 | 0.00 | 50 | 1013.9 |
| 20260905230430 | 96 | 75 | 2.6 | 6.1 | 0.00 | 0.00 | 0.00 | 48 | 1013.7 |
| 20260905225406 | 97 | 66 | 4.3 | 5.2 | 0.00 | 0.00 | 0.00 | 46 | 1013.7 |
| 20260905224428 | 98 | 69 | 2.6 | 9.6 | 0.00 | 0.00 | 0.00 | 45 | 1013.6 |
| 20260905223438 | 98 | 62 | 3.5 | 5.2 | 0.00 | 0.00 | 0.00 | 46 | 1013.6 |
| 20260905222411 | 98 | 64 | 3.5 | 7.0 | 0.00 | 0.00 | 0.00 | 45 | 1013.6 |
| 20260905221419 | 98 | 53 | 3.5 | 7.0 | 0.00 | 0.00 | 0.00 | 46 | 1013.6 |
| 20260905220441 | 99 | 38 | 5.2 | 7.0 | 0.00 | 0.00 | 0.00 | 44 | 1013.7 |
| 20260905214422 | 99 | 329 | 6.1 | 10.4 | 0.00 | 0.00 | 0.00 | 44 | 1013.7 |
| 20260905213443 | 99 | 300 | 3.5 | 7.8 | 0.00 | 0.00 | 0.00 | 42 | 1013.9 |
| 20260905212410 | 99 | 321 | 7.8 | 13.0 | 0.00 | 0.00 | 0.00 | 42 | 1014.2 |
| 20260905211436 | 99 | 338 | 4.3 | 7.0 | 0.00 | 0.00 | 0.00 | 43 | 1014.3 |
| 20260905210440 | 99 | 15 | 0.9 | 7.8 | 0.00 | 0.00 | 0.00 | 43 | 1014.3 |
| 20260905205404 | 99 | 313 | 2.6 | 8.7 | 0.00 | 0.00 | 0.00 | 41 | 1014.4 |
| 20260905204423 | 99 | 308 | 1.7 | 9.6 | 0.00 | 0.00 | 0.00 | 42 | 1014.5 |
| 20260905203417 | 99 | 273 | 3.5 | 8.7 | 0.00 | 0.00 | 0.00 | 43 | 1014.7 |
| 20260905202416 | 98 | 323 | 6.1 | 9.6 | 0.00 | 0.00 | 0.00 | 47 | 1014.8 |
| 20260905201442 | 98 | 317 | 1.7 | 7.8 | 0.00 | 0.00 | 0.00 | 45 | 1014.9 |
| 20260905195415 | 97 | 326 | 3.5 | 6.1 | 0.00 | 0.00 | 0.00 | 50 | 1015.2 |
| 20260905194426 | 97 | 340 | 3.5 | 7.0 | 0.00 | 0.00 | 0.00 | 44 | 1015.2 |
| 20260905193442 | 98 | 4 | 3.5 | 9.6 | 0.00 | 0.00 | 0.00 | 44 | 1015.3 |
| 20260905192415 | 97 | 339 | 2.6 | 7.8 | 0.00 | 0.00 | 0.00 | 45 | 1015.5 |
| 20260905191402 | 98 | 297 | 3.5 | 9.6 | 0.00 | 0.00 | 0.00 | 45 | 1015.5 |
| 20260905184433 | 97 | 304 | 4.3 | 10.4 | 0.00 | 0.00 | 0.00 | 48 | 1015.6 |
| 20260905183426 | 97 | 329 | 4.3 | 8.7 | 0.00 | 0.00 | 0.00 | 46 | 1015.8 |
| 20260905182439 | 97 | 329 | 5.2 | 7.0 | 0.00 | 0.00 | 0.00 | 46 | 1015.8 |
| 20260905181404 | 96 | 350 | 2.6 | 10.4 | 0.00 | 0.00 | 0.00 | 45 | 1015.9 |
| 20260905180404 | 97 | 303 | 5.2 | 11.3 | 0.00 | 0.00 | 0.00 | 45 | 1015.9 |
| 20260905175415 | 97 | 311 | 5.2 | 9.6 | 0.00 | 0.00 | 0.00 | 46 | 1016.0 |
| 20260905174446 | 96 | 308 | 3.5 | 9.6 | 0.00 | 0.00 | 0.00 | 47 | 1016.1 |
| 20260905173407 | 96 | 336 | 5.2 | 8.7 | 0.00 | 0.00 | 0.00 | 48 | 1016.4 |
| 20260905172417 | 96 | 315 | 6.1 | 8.7 | 0.00 | 0.00 | 0.00 | 52 | 1016.5 |
| 20260905171444 | 96 | 320 | 4.3 | 9.6 | 0.00 | 0.00 | 0.00 | 49 | 1016.5 |
| 20260905170411 | 96 | 288 | 5.2 | 8.7 | 0.00 | 0.00 | 0.00 | 52 | 1016.6 |
| 20260905165408 | 96 | 278 | 0.9 | 7.0 | 0.00 | 0.00 | 0.00 | 52 | 1016.7 |